Regional Weather Roundup
Issued by NWS

Home | Current Version | Previous Version | Graphics & Text | Print | Product List | Glossary Off
Versions: 1 2 3 4 5 6 7 8 9 10 11 12 13 14 15 16 17 18 19 20 21 22 23 24 25 26 27 28 29 30 31 32 33 34 35 36 37 38 39 40 41 42 43 44 45 46 47 48 49 50

000
ASUS43 KDMX 180306
RWRIA

WEATHER ROUNDUP FOR IOWA
NATIONAL WEATHER SERVICE DES MOINES IA
900 PM CST TUE JAN 17 2017

NOTE: "FAIR" INDICATES FEW OR NO CLOUDS BELOW 12,000 FEET WITH NO
SIGNIFICANT WEATHER AND/OR OBSTRUCTIONS TO VISIBILITY.

* - THESE STATIONS ARE NOT NWS STATIONS...THUS NOT UNDER NWS
QUALITY CONTROL.  THEY ALSO DO NOT REPORT WEATHER SUCH
AS PRECIPITATION OR FOG.

IAZ001>003-012>014-020>022-031>034-043>046-180400-
   NORTHWEST IOWA

CITY           SKY/WX    TMP DP  RH WIND       PRES   REMARKS
CARROLL *      CLOUDY    30  30 100 SW12      30.07S WCI  21
CHEROKEE *     CLOUDY    27  27 100 S6        30.04F FOG     WCI  20
DENISON *      CLOUDY    27  27 100 S7        30.05S FOG     WCI  19
LE MARS *      CLOUDY    30  28  93 S8        30.03F WCI  23
ORANGE CITY *  CLOUDY    27  27 100 S5        30.01S WCI  21
SHELDON *      CLOUDY    28  28 100 S7        30.00R WCI  21
SIOUX CITY     CLOUDY    27  25  92 SE7       30.04F WCI  19
SPENCER        CLOUDY    27  26  96 SW10      30.01F FOG     WCI  17
STORM LAKE *   CLOUDY    28  28 100 SW12      30.04S FOG     WCI  18
$$

IAZ055>058-069>071-079>083-090>094-180400-
   SOUTHWEST IOWA

CITY           SKY/WX    TMP DP  RH WIND       PRES   REMARKS
ATLANTIC *     CLOUDY    30  30 100 SW7       30.09S FOG     WCI  23
AUDUBON *      CLOUDY    28  27  93 CALM      30.09S FOG
CLARINDA *     CLEAR     28  28 100 CALM      30.13S FOG
COUNCIL BLFS * CLOUDY    27  27 100 S6        30.08S FOG     WCI  20
CRESTON *      CLOUDY    32  30  93 W7        30.10F WCI  26
HARLAN  *      CLOUDY    30  30 100 S8        30.12S FOG     WCI  23
LAMONI         CLOUDY    33  30  88 W7        30.11S WCI  27
RED OAK *      CLEAR     28  28 100 CALM      30.11S
SHENANDOAH *   CLEAR     27  27 100 S3        30.12S
$$

IAZ047>049-059>061-072>074-084-180400-
   CENTRAL IOWA

CITY           SKY/WX    TMP DP  RH WIND       PRES   REMARKS
AMES           CLOUDY    32  32 100 SW9       30.08F FOG     WCI  24
ANKENY *       CLOUDY    32  32 100 W8        30.11S FOG     WCI  25
BOONE *        CLOUDY    32  32 100 SW12      30.06F FOG     WCI  23
CHARITON *     CLOUDY    32  32 100 W6        30.10F FOG     WCI  26
DES MOINES     DRIZZLE   32  31  96 W9        30.10S FOG     WCI  24
GRINNELL*      CLOUDY    33  32  97 W8        30.08S FOG     WCI  26
KNOXVILLE *    CLOUDY    32  32 100 W10       30.09S FOG     WCI  24
MARSHALLTOWN   CLOUDY    32  32 100 W9        30.07R FOG     WCI  24
NEWTON *       CLOUDY    34  32  93 W10       30.08S FOG     WCI  26
PELLA *        CLOUDY    34  33  95 W10       30.11S FOG     WCI  26
PERRY *        CLOUDY    32  32  99 SW10      30.09S WCI  24
$$

IAZ004>006-015-016-023>025-035-036-180400-
   NORTH CENTRAL IOWA

CITY           SKY/WX    TMP DP  RH WIND       PRES   REMARKS
ALGONA *       MOCLDY    30  30 100 SW12      30.03S WCI  21
CLARION *      FOG       30  30 100 SW9       30.06S VSB 1/4 WCI  22
ESTHERVILLE    CLOUDY    26  25  96 SW8       30.00F WCI  18
FORT DODGE *   CLOUDY    30  27  86 MISG      30.07S
MASON CITY     CLOUDY    30  30 100 W12       30.05R WCI  20
FOREST CITY *  CLOUDY    30  30 100 W5        30.04R FOG     WCI  25
WEBSTER CITY * FOG       32  32 100 SW12      30.05S VSB 1/4 WCI  23
IOWA FALLS *   FOG       32  31  96 W7        30.07S VSB 1/4 WCI  25
$$

IAZ007>011-017>019-026>030-037>042-050>054-066-180400-
   NORTHEAST IOWA

CITY           SKY/WX    TMP DP  RH WIND       PRES   REMARKS
CEDAR RAPIDS   CLOUDY    32  32 100 NW9       30.06S FOG     WCI  24
CHARLES CITY * FOG       32  32 100 W9        30.05R VSB 1/2 WCI  24
CLINTON *      CLOUDY    33  32  96 W12       30.04  FOG     WCI  24
DECORAH *      CLOUDY    32  32 100 VRB6      30.01R FOG     WCI  26
DUBUQUE        FOG       33  33 100 W12       30.01S VSB 1   WCI  24
MONTICELLO *   CLOUDY    34  32  93 W10       30.04S FOG     WCI  26
OELWEIN *      FOG       32  32 100 W8        30.05R VSB 1/2 WCI  25
WATERLOO       CLOUDY    33  32  96 W7        30.06R FOG     WCI  27
$$

IAZ064-065-067-068-078-180400-
   EAST CENTRAL IOWA

CITY           SKY/WX    TMP DP  RH WIND       PRES   REMARKS
DAVENPORT      CLOUDY    33  32  96 W13       30.06R FOG     WCI  24
IOWA CITY      CLOUDY    35  33  92 W8        30.09F FOG     WCI  29
MUSCATINE *    CLOUDY    36  32  87 W12       30.09S WCI  27
QUAD CITIES    CLOUDY    34  32  92 W12       30.06R FOG     WCI  25
$$

IAZ062-063-075>077-085>089-095>099-180400-
   SOUTHEAST IOWA

CITY           SKY/WX    TMP DP  RH WIND       PRES   REMARKS
BURLINGTON     CLOUDY    36  35  96 NW5       30.10R WCI  32
FAIRFIELD *    CLOUDY    36  34  93 W5        30.09S FOG     WCI  32
FORT MADISON * CLOUDY    37  36  93 W7        30.12R WCI  32
KEOKUK *       CLOUDY    37  36  93 SW7       30.11S WCI  32
OSKALOOSA *    CLOUDY    33  33  99 W9        30.10S FOG     WCI  26
OTTUMWA        CLOUDY    35  33  92 W9        30.09R FOG     WCI  28
WASHINGTON *   CLOUDY    34  34 100 W6        30.10S WCI  29
$$

ABBREVIATIONS USED IN REMARKS
   TC - TEMPERATURES IN CELSIUS
  WCI - WIND CHILL INDEX
   HX - HEAT INDEX
  VSB - VISIBILITY
$$




USA.gov is the U.S. government's official web portal to all federal, state and local government web resources and services.